Year,Month,Day,Hour,Minute,Value (Times are PST for temperature in C)
2009,07,26,00,00,21.80
2009,07,26,00,01,21.60
2009,07,26,00,02,21.50
2009,07,26,00,03,21.30
2009,07,26,00,04,21.20
2009,07,26,00,05,21.10
2009,07,26,00,06,21.10
2009,07,26,00,07,21.10
2009,07,26,00,08,21.10
2009,07,26,00,09,21.10
2009,07,26,00,10,21.10
2009,07,26,00,11,21.20
2009,07,26,00,12,21.20
2009,07,26,00,13,21.20
2009,07,26,00,14,21.30
2009,07,26,00,15,21.30
2009,07,26,00,16,21.30
2009,07,26,00,17,21.40
2009,07,26,00,18,21.40
2009,07,26,00,19,21.30
2009,07,26,00,20,21.30
2009,07,26,00,21,21.20
2009,07,26,00,22,21.10
2009,07,26,00,23,21.10
2009,07,26,00,24,21.00
2009,07,26,00,25,21.00
2009,07,26,00,26,20.90
2009,07,26,00,27,20.90
2009,07,26,00,28,20.80
2009,07,26,00,29,20.80
2009,07,26,00,30,20.70
2009,07,26,00,31,20.70
2009,07,26,00,32,20.70
2009,07,26,00,33,20.70
2009,07,26,00,34,20.70
2009,07,26,00,35,20.70
2009,07,26,00,36,20.70
2009,07,26,00,37,20.70
2009,07,26,00,38,20.70
2009,07,26,00,39,20.70
2009,07,26,00,40,20.70
2009,07,26,00,41,20.70
2009,07,26,00,42,20.70
2009,07,26,00,43,20.70
2009,07,26,00,44,20.70
2009,07,26,00,45,20.70
2009,07,26,00,46,20.70
2009,07,26,00,47,20.80
2009,07,26,00,48,20.80
2009,07,26,00,49,20.80
2009,07,26,00,50,20.80
2009,07,26,00,51,20.80
2009,07,26,00,52,20.90
2009,07,26,00,53,20.90
2009,07,26,00,54,20.90
2009,07,26,00,55,20.90
2009,07,26,00,56,20.90
2009,07,26,00,57,20.90
2009,07,26,00,58,20.90
2009,07,26,00,59,20.90
2009,07,26,01,00,20.90
2009,07,26,01,01,20.90
2009,07,26,01,02,20.90
2009,07,26,01,03,20.90
2009,07,26,01,04,20.80
2009,07,26,01,05,20.80
2009,07,26,01,06,20.80
2009,07,26,01,07,20.80
2009,07,26,01,08,20.80
2009,07,26,01,09,20.80
2009,07,26,01,10,20.80
2009,07,26,01,11,20.70
2009,07,26,01,12,20.70
2009,07,26,01,13,20.70
2009,07,26,01,14,20.70
2009,07,26,01,15,20.70
2009,07,26,01,16,20.70
2009,07,26,01,17,20.70
2009,07,26,01,18,20.70
2009,07,26,01,19,20.70
2009,07,26,01,20,20.70
2009,07,26,01,21,20.70
2009,07,26,01,22,20.70
2009,07,26,01,23,20.70
2009,07,26,01,24,20.70
2009,07,26,01,25,20.70
2009,07,26,01,26,20.70
2009,07,26,01,27,20.70
2009,07,26,01,28,20.70
2009,07,26,01,29,20.70
2009,07,26,01,30,20.60
2009,07,26,01,31,20.60
2009,07,26,01,32,20.60
2009,07,26,01,33,20.60
2009,07,26,01,34,20.60
2009,07,26,01,35,20.60
2009,07,26,01,36,20.60
2009,07,26,01,37,20.70
2009,07,26,01,38,20.70
2009,07,26,01,39,20.70
2009,07,26,01,40,20.70
2009,07,26,01,41,20.70
2009,07,26,01,42,20.80
2009,07,26,01,43,20.80
2009,07,26,01,44,20.80
2009,07,26,01,45,20.80
2009,07,26,01,46,20.80
2009,07,26,01,47,20.90
2009,07,26,01,48,20.90
2009,07,26,01,49,20.90
2009,07,26,01,50,20.90
2009,07,26,01,51,20.90
2009,07,26,01,52,20.90
2009,07,26,01,53,20.90
2009,07,26,01,54,20.90
2009,07,26,01,55,20.90
2009,07,26,01,56,20.90
2009,07,26,01,57,20.90
2009,07,26,01,58,20.90
2009,07,26,01,59,20.90
2009,07,26,02,00,20.90
2009,07,26,02,01,20.90
2009,07,26,02,02,20.90
2009,07,26,02,03,20.90
2009,07,26,02,04,20.90
2009,07,26,02,05,20.90
2009,07,26,02,06,20.90
2009,07,26,02,07,20.90
2009,07,26,02,08,20.90
2009,07,26,02,09,20.80
2009,07,26,02,10,20.90
2009,07,26,02,11,20.90
2009,07,26,02,12,20.90
2009,07,26,02,13,20.90
2009,07,26,02,14,21.00
2009,07,26,02,15,21.00
2009,07,26,02,16,21.10
2009,07,26,02,17,21.10
2009,07,26,02,18,21.10
2009,07,26,02,19,21.20
2009,07,26,02,20,21.20
2009,07,26,02,21,21.20
2009,07,26,02,22,21.20
2009,07,26,02,23,21.20
2009,07,26,02,24,21.20
2009,07,26,02,25,21.20
2009,07,26,02,26,21.10
2009,07,26,02,27,21.10
2009,07,26,02,28,21.10
2009,07,26,02,29,21.10
2009,07,26,02,30,21.10
2009,07,26,02,31,21.10
2009,07,26,02,32,21.10
2009,07,26,02,33,21.10
2009,07,26,02,34,20.70
2009,07,26,02,35,20.70
2009,07,26,02,36,20.60
2009,07,26,02,37,20.60
2009,07,26,02,38,20.60
2009,07,26,02,39,20.60
2009,07,26,02,40,20.60
2009,07,26,02,41,20.60
2009,07,26,02,42,20.60
2009,07,26,02,43,20.60
2009,07,26,02,44,20.60
2009,07,26,02,45,20.60
2009,07,26,02,46,20.60
2009,07,26,02,47,20.60
2009,07,26,02,48,20.60
2009,07,26,02,49,20.50
2009,07,26,02,50,20.50
2009,07,26,02,51,20.50
2009,07,26,02,52,20.50
2009,07,26,02,53,20.50
2009,07,26,02,54,20.50
2009,07,26,02,55,20.50
2009,07,26,02,56,20.40
2009,07,26,02,57,20.40
2009,07,26,02,58,20.30
2009,07,26,02,59,20.30
2009,07,26,03,00,20.20
2009,07,26,03,01,20.20
2009,07,26,03,02,20.20
2009,07,26,03,03,20.10
2009,07,26,03,04,20.10
2009,07,26,03,05,20.10
2009,07,26,03,06,20.00
2009,07,26,03,07,20.00
2009,07,26,03,08,20.00
2009,07,26,03,09,20.00
2009,07,26,03,10,19.90
2009,07,26,03,11,19.90
2009,07,26,03,12,19.90
2009,07,26,03,13,19.90
2009,07,26,03,14,19.90
2009,07,26,03,15,20.00
2009,07,26,03,16,19.90
2009,07,26,03,17,19.90
2009,07,26,03,18,19.90
2009,07,26,03,19,19.90
2009,07,26,03,20,19.90
2009,07,26,03,21,19.90
2009,07,26,03,22,19.90
2009,07,26,03,23,19.90
2009,07,26,03,24,19.80
2009,07,26,03,25,19.80
2009,07,26,03,26,19.70
2009,07,26,03,27,19.70
2009,07,26,03,28,19.70
2009,07,26,03,29,19.60
2009,07,26,03,30,19.60
2009,07,26,03,31,19.60
2009,07,26,03,32,19.60
2009,07,26,03,33,19.60
2009,07,26,03,34,19.60
2009,07,26,03,35,19.60
2009,07,26,03,36,19.60
2009,07,26,03,37,19.70
2009,07,26,03,38,19.70
2009,07,26,03,39,19.80
2009,07,26,03,40,19.80
2009,07,26,03,41,19.90
2009,07,26,03,42,20.00
2009,07,26,03,43,20.10
2009,07,26,03,44,20.10
2009,07,26,03,45,20.20
2009,07,26,03,46,20.20
2009,07,26,03,47,20.30
2009,07,26,03,48,20.40
2009,07,26,03,49,20.40
2009,07,26,03,50,20.40
2009,07,26,03,51,20.50
2009,07,26,03,52,20.50
2009,07,26,03,53,20.60
2009,07,26,03,54,20.60
2009,07,26,03,55,20.70
2009,07,26,03,56,20.70
2009,07,26,03,57,20.80
2009,07,26,03,58,20.90
2009,07,26,03,59,20.90
2009,07,26,04,00,21.00
2009,07,26,04,01,21.00
2009,07,26,04,02,21.10
2009,07,26,04,03,21.10
2009,07,26,04,04,21.10
2009,07,26,04,05,21.10
2009,07,26,04,06,21.10
2009,07,26,04,07,21.10
2009,07,26,04,08,21.10
2009,07,26,04,09,21.10
2009,07,26,04,10,21.10
2009,07,26,04,11,21.10
2009,07,26,04,12,21.00
2009,07,26,04,13,21.00
2009,07,26,04,14,21.00
2009,07,26,04,15,21.00
2009,07,26,04,16,21.00
2009,07,26,04,17,21.00
2009,07,26,04,18,21.00
2009,07,26,04,19,21.00
2009,07,26,04,20,21.00
2009,07,26,04,21,21.00
2009,07,26,04,22,21.00
2009,07,26,04,23,21.00
2009,07,26,04,24,21.00
2009,07,26,04,25,21.00
2009,07,26,04,26,21.10
2009,07,26,04,27,21.10
2009,07,26,04,28,21.10
2009,07,26,04,29,21.10
2009,07,26,04,30,21.20
2009,07,26,04,31,21.20
2009,07,26,04,32,21.20
2009,07,26,04,33,21.20
2009,07,26,04,34,21.20
2009,07,26,04,35,21.20
2009,07,26,04,36,21.30
2009,07,26,04,37,21.30
2009,07,26,04,38,21.30
2009,07,26,04,39,21.40
2009,07,26,04,40,21.40
2009,07,26,04,41,21.40
2009,07,26,04,42,21.50
2009,07,26,04,43,21.50
2009,07,26,04,44,21.50
2009,07,26,04,45,21.50
2009,07,26,04,46,21.50
2009,07,26,04,47,21.50
2009,07,26,04,48,21.50
2009,07,26,04,49,21.50
2009,07,26,04,50,21.50
2009,07,26,04,51,21.50
2009,07,26,04,52,21.50
2009,07,26,04,53,21.50
2009,07,26,04,54,21.40
2009,07,26,04,55,21.40
2009,07,26,04,56,21.40
2009,07,26,04,57,21.30
2009,07,26,04,58,21.30
2009,07,26,04,59,21.30
2009,07,26,05,00,21.20
2009,07,26,05,01,21.20
2009,07,26,05,02,21.20
2009,07,26,05,03,21.20
2009,07,26,05,04,21.20
2009,07,26,05,05,21.20
2009,07,26,05,06,21.20
2009,07,26,05,07,21.20
2009,07,26,05,08,21.20
2009,07,26,05,09,21.10
2009,07,26,05,10,21.10
2009,07,26,05,11,21.10
2009,07,26,05,12,21.10
2009,07,26,05,13,21.00
2009,07,26,05,14,21.00
2009,07,26,05,15,20.90
2009,07,26,05,16,20.90
2009,07,26,05,17,20.80
2009,07,26,05,18,20.80
2009,07,26,05,19,20.80
2009,07,26,05,20,20.70
2009,07,26,05,21,20.70
2009,07,26,05,22,20.60
2009,07,26,05,23,20.60
2009,07,26,05,24,20.60
2009,07,26,05,25,20.50
2009,07,26,05,26,20.50
2009,07,26,05,27,20.40
2009,07,26,05,28,20.40
2009,07,26,05,29,20.40
2009,07,26,05,30,20.40
2009,07,26,05,31,20.40
2009,07,26,05,32,20.30
2009,07,26,05,33,20.30
2009,07,26,05,34,20.30
2009,07,26,05,35,20.30
2009,07,26,05,36,20.30
2009,07,26,05,37,20.30
2009,07,26,05,38,20.30
2009,07,26,05,39,20.30
2009,07,26,05,40,20.30
2009,07,26,05,41,20.30
2009,07,26,05,42,20.30
2009,07,26,05,43,20.30
2009,07,26,05,44,20.30
2009,07,26,05,45,20.20
2009,07,26,05,46,20.20
2009,07,26,05,47,20.20
2009,07,26,05,48,20.20
2009,07,26,05,49,20.20
2009,07,26,05,50,20.20
2009,07,26,05,51,20.20
2009,07,26,05,52,20.20
2009,07,26,05,53,20.20
2009,07,26,05,54,20.20
2009,07,26,05,55,20.20
2009,07,26,05,56,20.10
2009,07,26,05,57,20.10
2009,07,26,05,58,20.10
2009,07,26,05,59,20.10
2009,07,26,06,00,20.10
2009,07,26,06,01,20.10
2009,07,26,06,02,20.10
2009,07,26,06,03,20.10
2009,07,26,06,04,20.10
2009,07,26,06,05,20.10
2009,07,26,06,06,20.10
2009,07,26,06,07,20.10
2009,07,26,06,08,20.10
2009,07,26,06,09,20.10
2009,07,26,06,10,20.10
2009,07,26,06,11,20.10
2009,07,26,06,12,20.10
2009,07,26,06,13,20.10
2009,07,26,06,14,20.20
2009,07,26,06,15,20.20
2009,07,26,06,16,20.20
2009,07,26,06,17,20.20
2009,07,26,06,18,20.20
2009,07,26,06,19,20.20
2009,07,26,06,20,20.20
2009,07,26,06,21,20.20
2009,07,26,06,22,20.20
2009,07,26,06,23,20.20
2009,07,26,06,24,20.10
2009,07,26,06,25,20.10
2009,07,26,06,26,20.10
2009,07,26,06,27,20.10
2009,07,26,06,28,20.10
2009,07,26,06,29,20.10
2009,07,26,06,30,20.10
2009,07,26,06,31,20.10
2009,07,26,06,32,20.10
2009,07,26,06,33,20.10
2009,07,26,06,34,20.10
2009,07,26,06,35,20.00
2009,07,26,06,36,20.00
2009,07,26,06,37,20.00
2009,07,26,06,38,20.10
2009,07,26,06,39,20.10
2009,07,26,06,40,20.10
2009,07,26,06,41,20.10
2009,07,26,06,42,20.00
2009,07,26,06,43,20.10
2009,07,26,06,44,20.00
2009,07,26,06,45,20.00
2009,07,26,06,46,20.00
2009,07,26,06,47,20.10
2009,07,26,06,48,20.10
2009,07,26,06,49,20.10
2009,07,26,06,50,20.10
2009,07,26,06,51,20.10
2009,07,26,06,52,20.10
2009,07,26,06,53,20.10
2009,07,26,06,54,20.10
2009,07,26,06,55,20.10
2009,07,26,06,56,20.10
2009,07,26,06,57,20.10
2009,07,26,06,58,20.10
2009,07,26,06,59,20.10
2009,07,26,07,00,20.20
2009,07,26,07,01,20.20
2009,07,26,07,02,20.20
2009,07,26,07,03,20.20
2009,07,26,07,04,20.20
2009,07,26,07,05,20.20
2009,07,26,07,06,20.30
2009,07,26,07,07,20.30
2009,07,26,07,08,20.30
2009,07,26,07,09,20.40
2009,07,26,07,10,20.40
2009,07,26,07,11,20.40
2009,07,26,07,12,20.40
2009,07,26,07,13,20.40
2009,07,26,07,14,20.40
2009,07,26,07,15,20.40
2009,07,26,07,16,20.40
2009,07,26,07,17,20.40
2009,07,26,07,18,20.40
2009,07,26,07,19,20.30
2009,07,26,07,20,20.30
2009,07,26,07,21,20.30
2009,07,26,07,22,20.30
2009,07,26,07,23,20.30
2009,07,26,07,24,20.30
2009,07,26,07,25,20.30
2009,07,26,07,26,20.30
2009,07,26,07,27,20.40
2009,07,26,07,28,20.40
2009,07,26,07,29,20.40
2009,07,26,07,30,20.40
2009,07,26,07,31,20.40
2009,07,26,07,32,20.40
2009,07,26,07,33,20.40
2009,07,26,07,34,20.40
2009,07,26,07,35,20.40
2009,07,26,07,36,20.50
2009,07,26,07,37,20.50
2009,07,26,07,38,20.50
2009,07,26,07,39,20.50
2009,07,26,07,40,20.50
2009,07,26,07,41,20.50
2009,07,26,07,42,20.50
2009,07,26,07,43,20.60
2009,07,26,07,44,20.60
2009,07,26,07,45,20.60
2009,07,26,07,46,20.60
2009,07,26,07,47,20.60
2009,07,26,07,48,20.70
2009,07,26,07,49,20.70
2009,07,26,07,50,20.70
2009,07,26,07,51,20.70
2009,07,26,07,52,20.80
2009,07,26,07,53,20.80
2009,07,26,07,54,20.80
2009,07,26,07,55,20.80
2009,07,26,07,56,20.80
2009,07,26,07,57,20.80
2009,07,26,07,58,20.90
2009,07,26,07,59,20.90
2009,07,26,08,00,20.90
2009,07,26,08,01,20.90
2009,07,26,08,02,21.00
2009,07,26,08,03,21.00
2009,07,26,08,04,21.00
2009,07,26,08,05,21.00
2009,07,26,08,06,21.00
2009,07,26,08,07,21.00
2009,07,26,08,08,21.00
2009,07,26,08,09,21.10
2009,07,26,08,10,21.10
2009,07,26,08,11,21.10
2009,07,26,08,12,21.10
2009,07,26,08,13,21.10
2009,07,26,08,14,21.10
2009,07,26,08,15,21.10
2009,07,26,08,16,21.10
2009,07,26,08,17,21.10
2009,07,26,08,18,21.10
2009,07,26,08,19,21.10
2009,07,26,08,20,21.10
2009,07,26,08,21,21.10
2009,07,26,08,22,21.10
2009,07,26,08,23,21.10
2009,07,26,08,24,21.10
2009,07,26,08,25,21.10
2009,07,26,08,26,21.10
2009,07,26,08,27,21.10
2009,07,26,08,28,21.20
2009,07,26,08,29,21.20
2009,07,26,08,30,21.20
2009,07,26,08,31,21.20
2009,07,26,08,32,21.20
2009,07,26,08,33,21.20
2009,07,26,08,34,21.20
2009,07,26,08,35,21.20
2009,07,26,08,36,21.20
2009,07,26,08,37,21.20
2009,07,26,08,38,21.30
2009,07,26,08,39,21.30
2009,07,26,08,40,21.30
2009,07,26,08,41,21.40
2009,07,26,08,42,21.40
2009,07,26,08,43,21.50
2009,07,26,08,44,21.60
2009,07,26,08,45,21.50
2009,07,26,08,46,21.50
2009,07,26,08,47,21.40
2009,07,26,08,48,21.30
2009,07,26,08,49,21.30
2009,07,26,08,50,21.20
2009,07,26,08,51,21.20
2009,07,26,08,52,21.10
2009,07,26,08,53,21.10
2009,07,26,08,54,21.10
2009,07,26,08,55,21.10
2009,07,26,08,56,21.10
2009,07,26,08,57,21.10
2009,07,26,08,58,21.10
2009,07,26,08,59,21.10
2009,07,26,09,00,21.20
2009,07,26,09,01,21.20
2009,07,26,09,02,21.20
2009,07,26,09,03,21.20
2009,07,26,09,04,21.20
2009,07,26,09,05,21.20
2009,07,26,09,06,21.20
2009,07,26,09,07,21.20
2009,07,26,09,08,21.30
2009,07,26,09,09,21.30
2009,07,26,09,10,21.30
2009,07,26,09,11,21.30
2009,07,26,09,12,21.30
2009,07,26,09,13,21.30
2009,07,26,09,14,21.40
2009,07,26,09,15,21.40
2009,07,26,09,16,21.30
2009,07,26,09,17,21.30
2009,07,26,09,18,21.30
2009,07,26,09,19,21.30
2009,07,26,09,20,21.30
2009,07,26,09,21,21.40
2009,07,26,09,22,21.40
2009,07,26,09,23,21.40
2009,07,26,09,24,21.30
2009,07,26,09,25,21.20
2009,07,26,09,26,21.10
2009,07,26,09,27,20.90
2009,07,26,09,28,20.90
2009,07,26,09,29,20.80
2009,07,26,09,30,20.80
2009,07,26,09,31,20.80
2009,07,26,09,32,20.80
2009,07,26,09,33,20.80
2009,07,26,09,34,20.80
2009,07,26,09,35,20.70
2009,07,26,09,36,20.60
2009,07,26,09,37,20.60
2009,07,26,09,38,20.50
2009,07,26,09,39,20.50
2009,07,26,09,40,20.50
2009,07,26,09,41,20.50
2009,07,26,09,42,20.50
2009,07,26,09,43,20.50
2009,07,26,09,44,20.50
2009,07,26,09,45,20.60
2009,07,26,09,46,20.60
2009,07,26,09,47,20.70
2009,07,26,09,48,20.70
2009,07,26,09,49,20.70
2009,07,26,09,50,20.70
2009,07,26,09,51,20.80
2009,07,26,09,52,20.80
2009,07,26,09,53,20.80
2009,07,26,09,54,20.80
2009,07,26,09,55,20.80
2009,07,26,09,56,20.80
2009,07,26,09,57,20.80
2009,07,26,09,58,20.80
2009,07,26,09,59,20.80
2009,07,26,10,00,20.80
2009,07,26,10,01,20.80
2009,07,26,10,02,20.80
2009,07,26,10,03,20.80
2009,07,26,10,04,20.80
2009,07,26,10,05,20.70
2009,07,26,10,06,20.70
2009,07,26,10,07,20.70
2009,07,26,10,08,20.70
2009,07,26,10,09,20.70
2009,07,26,10,10,20.70
2009,07,26,10,11,20.70
2009,07,26,10,12,20.70
2009,07,26,10,13,20.70
2009,07,26,10,14,20.70
2009,07,26,10,15,20.60
2009,07,26,10,16,20.60
2009,07,26,10,17,20.50
2009,07,26,10,18,20.40
2009,07,26,10,19,20.40
2009,07,26,10,20,20.40
2009,07,26,10,21,20.40
2009,07,26,10,22,20.40
2009,07,26,10,23,20.40
2009,07,26,10,24,20.50
2009,07,26,10,25,20.50
2009,07,26,10,26,20.50
2009,07,26,10,27,20.50
2009,07,26,10,28,20.50
2009,07,26,10,29,20.50
2009,07,26,10,30,20.50
2009,07,26,10,31,20.50
2009,07,26,10,32,20.60
2009,07,26,10,33,20.60
2009,07,26,10,34,20.60
2009,07,26,10,35,20.60
2009,07,26,10,36,20.60
2009,07,26,10,37,20.70
2009,07,26,10,38,20.70
2009,07,26,10,39,20.70
2009,07,26,10,40,20.70
2009,07,26,10,41,20.70
2009,07,26,10,42,20.80
2009,07,26,10,43,20.80
2009,07,26,10,44,20.90
2009,07,26,10,45,21.00
2009,07,26,10,46,21.10
2009,07,26,10,47,21.20
2009,07,26,10,48,21.30
2009,07,26,10,49,21.40
2009,07,26,10,50,21.50
2009,07,26,10,51,21.60
2009,07,26,10,52,21.70
2009,07,26,10,53,21.80
2009,07,26,10,54,21.80
2009,07,26,10,55,21.90
2009,07,26,10,56,21.90
2009,07,26,10,57,21.90
2009,07,26,10,58,21.80
2009,07,26,10,59,21.80
2009,07,26,11,00,21.90
2009,07,26,11,01,21.90
2009,07,26,11,02,22.00
2009,07,26,11,03,22.10
2009,07,26,11,04,22.10
2009,07,26,11,05,22.10
2009,07,26,11,06,22.20
2009,07,26,11,07,22.20
2009,07,26,11,08,22.20
2009,07,26,11,09,22.20
2009,07,26,11,10,22.20
2009,07,26,11,11,22.20
2009,07,26,11,12,22.10
2009,07,26,11,13,22.20
2009,07,26,11,14,22.20
2009,07,26,11,15,22.20
2009,07,26,11,16,22.30
2009,07,26,11,17,22.40
2009,07,26,11,18,22.40
2009,07,26,11,19,22.40
2009,07,26,11,20,22.50
2009,07,26,11,21,22.50
2009,07,26,11,22,22.60
2009,07,26,11,23,22.70
2009,07,26,11,24,22.80
2009,07,26,11,25,22.80
2009,07,26,11,26,22.80
2009,07,26,11,27,22.80
2009,07,26,11,28,22.80
2009,07,26,11,29,22.80
2009,07,26,11,30,22.90
2009,07,26,11,31,23.00
2009,07,26,11,32,23.10
2009,07,26,11,33,23.10
2009,07,26,11,34,23.20
2009,07,26,11,35,23.30
2009,07,26,11,36,23.30
2009,07,26,11,37,23.30
2009,07,26,11,38,23.40
2009,07,26,11,39,23.40
2009,07,26,11,40,23.40
2009,07,26,11,41,23.40
2009,07,26,11,42,23.50
2009,07,26,11,43,23.50
2009,07,26,11,44,23.60
2009,07,26,11,45,23.50
2009,07,26,11,46,23.40
2009,07,26,11,47,23.30
2009,07,26,11,48,23.30
2009,07,26,11,49,23.20
2009,07,26,11,50,23.10
2009,07,26,11,51,23.00
2009,07,26,11,52,23.00
2009,07,26,11,53,22.90
2009,07,26,11,54,22.90
2009,07,26,11,55,23.00
2009,07,26,11,56,23.00
2009,07,26,11,57,23.10
2009,07,26,11,58,23.20
2009,07,26,11,59,23.20
2009,07,26,12,00,23.20
2009,07,26,12,01,23.20
2009,07,26,12,02,23.20
2009,07,26,12,03,23.30
2009,07,26,12,04,23.40
2009,07,26,12,05,23.50
2009,07,26,12,06,23.50
2009,07,26,12,07,23.60
2009,07,26,12,08,23.60
2009,07,26,12,09,23.50
2009,07,26,12,10,23.50
2009,07,26,12,11,23.40
2009,07,26,12,12,23.40
2009,07,26,12,13,23.30
2009,07,26,12,14,23.30
2009,07,26,12,15,23.30
2009,07,26,12,16,23.30
2009,07,26,12,17,23.30
2009,07,26,12,18,23.30
2009,07,26,12,19,23.20
2009,07,26,12,20,23.20
2009,07,26,12,21,23.20
2009,07,26,12,22,23.20
2009,07,26,12,23,23.20
2009,07,26,12,24,23.30
2009,07,26,12,25,23.30
2009,07,26,12,26,23.40
2009,07,26,12,27,23.40
2009,07,26,12,28,23.50
2009,07,26,12,29,23.60
2009,07,26,12,30,23.60
2009,07,26,12,31,23.70
2009,07,26,12,32,23.70
2009,07,26,12,33,23.60
2009,07,26,12,34,23.70
2009,07,26,12,35,23.70
2009,07,26,12,36,23.70
2009,07,26,12,37,23.70
2009,07,26,12,38,23.70
2009,07,26,12,39,23.70
2009,07,26,12,40,23.80
2009,07,26,12,41,23.90
2009,07,26,12,42,24.00
2009,07,26,12,43,24.10
2009,07,26,12,44,24.20
2009,07,26,12,45,24.30
2009,07,26,12,46,24.30
2009,07,26,12,47,24.40
2009,07,26,12,48,24.40
2009,07,26,12,49,24.40
2009,07,26,12,50,24.40
2009,07,26,12,51,24.40
2009,07,26,12,52,24.40
2009,07,26,12,53,24.40
2009,07,26,12,54,24.30
2009,07,26,12,55,24.30
2009,07,26,12,56,24.30
2009,07,26,12,57,24.30
2009,07,26,12,58,24.40
2009,07,26,12,59,24.50
2009,07,26,13,00,24.60
2009,07,26,13,01,24.50
2009,07,26,13,02,24.40
2009,07,26,13,03,24.40
2009,07,26,13,04,24.40
2009,07,26,13,05,24.40
2009,07,26,13,06,24.40
2009,07,26,13,07,24.50
2009,07,26,13,08,24.50
2009,07,26,13,09,24.40
2009,07,26,13,10,24.30
2009,07,26,13,11,24.20
2009,07,26,13,12,24.10
2009,07,26,13,13,23.90
2009,07,26,13,14,23.80
2009,07,26,13,15,23.70
2009,07,26,13,16,23.60
2009,07,26,13,17,23.50
2009,07,26,13,18,23.40
2009,07,26,13,19,23.30
2009,07,26,13,20,23.20
2009,07,26,13,21,23.20
2009,07,26,13,22,23.20
2009,07,26,13,23,23.20
2009,07,26,13,24,23.10
2009,07,26,13,25,23.10
2009,07,26,13,26,23.00
2009,07,26,13,27,22.90
2009,07,26,13,28,22.90
2009,07,26,13,29,22.90
2009,07,26,13,30,22.80
2009,07,26,13,31,22.60
2009,07,26,13,32,22.50
2009,07,26,13,33,22.30
2009,07,26,13,34,22.20
2009,07,26,13,35,22.20
2009,07,26,13,36,22.10
2009,07,26,13,37,22.20
2009,07,26,13,38,22.20
2009,07,26,13,39,22.20
2009,07,26,13,40,22.30
2009,07,26,13,41,22.30
2009,07,26,13,42,22.50
2009,07,26,13,43,22.60
2009,07,26,13,44,22.60
2009,07,26,13,45,22.60
2009,07,26,13,46,22.60
2009,07,26,13,47,22.50
2009,07,26,13,48,22.40
2009,07,26,13,49,22.40
2009,07,26,13,50,22.40
2009,07,26,13,51,22.50
2009,07,26,13,52,22.60
2009,07,26,13,53,22.60
2009,07,26,13,54,22.70
2009,07,26,13,55,22.70
2009,07,26,13,56,22.80
2009,07,26,13,57,22.80
2009,07,26,13,58,22.90
2009,07,26,13,59,23.00
2009,07,26,14,00,23.10
2009,07,26,14,01,23.20
2009,07,26,14,02,23.30
2009,07,26,14,03,23.40
2009,07,26,14,04,23.40
2009,07,26,14,05,23.50
2009,07,26,14,06,23.50
2009,07,26,14,07,23.60
2009,07,26,14,08,23.70
2009,07,26,14,09,23.60
2009,07,26,14,10,23.50
2009,07,26,14,11,23.50
2009,07,26,14,12,23.40
2009,07,26,14,13,23.30
2009,07,26,14,14,23.30
2009,07,26,14,15,23.30
2009,07,26,14,16,23.20
2009,07,26,14,17,23.20
2009,07,26,14,18,23.20
2009,07,26,14,19,23.20
2009,07,26,14,20,23.20
2009,07,26,14,21,23.20
2009,07,26,14,22,23.20
2009,07,26,14,23,23.20
2009,07,26,14,24,23.30
2009,07,26,14,25,23.30
2009,07,26,14,26,23.30
2009,07,26,14,27,23.30
2009,07,26,14,28,23.30
2009,07,26,14,29,23.30
2009,07,26,14,30,23.30
2009,07,26,14,31,23.30
2009,07,26,14,32,23.30
2009,07,26,14,33,23.40
2009,07,26,14,34,23.40
2009,07,26,14,35,23.50
2009,07,26,14,36,23.50
2009,07,26,14,37,23.60
2009,07,26,14,38,23.60
2009,07,26,14,39,23.70
2009,07,26,14,40,23.70
2009,07,26,14,41,23.70
2009,07,26,14,42,23.60
2009,07,26,14,43,23.70
2009,07,26,14,44,23.70
2009,07,26,14,45,23.70
2009,07,26,14,46,23.70
2009,07,26,14,47,23.80
2009,07,26,14,48,23.90
2009,07,26,14,49,24.00
2009,07,26,14,50,24.20
2009,07,26,14,51,24.30
2009,07,26,14,52,24.40
2009,07,26,14,53,24.50
2009,07,26,14,54,24.60
2009,07,26,14,55,24.70
2009,07,26,14,56,24.80
2009,07,26,14,57,24.70
2009,07,26,14,58,24.70
2009,07,26,14,59,24.70
2009,07,26,15,00,24.70
2009,07,26,15,01,24.60
2009,07,26,15,02,24.60
2009,07,26,15,03,24.70
2009,07,26,15,04,24.70
2009,07,26,15,05,24.70
2009,07,26,15,06,24.70
2009,07,26,15,07,24.70
2009,07,26,15,08,24.70
2009,07,26,15,09,24.70
2009,07,26,15,10,24.80
2009,07,26,15,11,24.90
2009,07,26,15,12,25.00
2009,07,26,15,13,25.10
2009,07,26,15,14,25.10
2009,07,26,15,15,25.00
2009,07,26,15,16,25.00
2009,07,26,15,17,24.90
2009,07,26,15,18,24.80
2009,07,26,15,19,24.70
2009,07,26,15,20,24.70
2009,07,26,15,21,24.60
2009,07,26,15,22,24.70
2009,07,26,15,23,24.60
2009,07,26,15,24,24.60
2009,07,26,15,25,24.50
2009,07,26,15,26,24.40
2009,07,26,15,27,24.40
2009,07,26,15,28,24.40
2009,07,26,15,29,24.30
2009,07,26,15,30,24.20
2009,07,26,15,31,24.10
2009,07,26,15,32,24.10
2009,07,26,15,33,24.10
2009,07,26,15,34,24.10
2009,07,26,15,35,24.10
2009,07,26,15,36,24.00
2009,07,26,15,37,23.90
2009,07,26,15,38,24.00
2009,07,26,15,39,24.00
2009,07,26,15,40,24.00
2009,07,26,15,41,24.10
2009,07,26,15,42,24.00
2009,07,26,15,43,23.90
2009,07,26,15,44,23.80
2009,07,26,15,45,23.70
2009,07,26,15,46,23.60
2009,07,26,15,47,23.50
2009,07,26,15,48,23.50
2009,07,26,15,49,23.40
2009,07,26,15,50,23.40
2009,07,26,15,51,23.40
2009,07,26,15,52,23.30
2009,07,26,15,53,23.30
2009,07,26,15,54,23.30
2009,07,26,15,55,23.30
2009,07,26,15,56,23.40
2009,07,26,15,57,23.40
2009,07,26,15,58,23.60
2009,07,26,15,59,23.70
2009,07,26,16,00,23.80
2009,07,26,16,01,23.90
2009,07,26,16,02,24.00
2009,07,26,16,03,24.10
2009,07,26,16,04,24.10
2009,07,26,16,05,24.10
2009,07,26,16,06,24.00
2009,07,26,16,07,23.90
2009,07,26,16,08,23.90
2009,07,26,16,09,23.80
2009,07,26,16,10,23.80
2009,07,26,16,11,23.80
2009,07,26,16,12,23.70
2009,07,26,16,13,23.80
2009,07,26,16,14,23.80
2009,07,26,16,15,23.90
2009,07,26,16,16,24.10
2009,07,26,16,17,24.20
2009,07,26,16,18,24.30
2009,07,26,16,19,24.30
2009,07,26,16,20,24.30
2009,07,26,16,21,24.20
2009,07,26,16,22,24.20
2009,07,26,16,23,24.20
2009,07,26,16,24,24.20
2009,07,26,16,25,24.30
2009,07,26,16,26,24.30
2009,07,26,16,27,24.30
2009,07,26,16,28,24.30
2009,07,26,16,29,24.30
2009,07,26,16,30,24.40
2009,07,26,16,31,24.40
2009,07,26,16,32,24.50
2009,07,26,16,33,24.50
2009,07,26,16,34,24.60
2009,07,26,16,35,24.60
2009,07,26,16,36,24.70
2009,07,26,16,37,24.70
2009,07,26,16,38,24.70
2009,07,26,16,39,24.70
2009,07,26,16,40,24.60
2009,07,26,16,41,24.60
2009,07,26,16,42,24.60
2009,07,26,16,43,24.60
2009,07,26,16,44,24.60
2009,07,26,16,45,24.60
2009,07,26,16,46,24.60
2009,07,26,16,47,24.60
2009,07,26,16,48,24.70
2009,07,26,16,49,24.80
2009,07,26,16,50,24.90
2009,07,26,16,51,25.00
2009,07,26,16,52,25.10
2009,07,26,16,53,25.20
2009,07,26,16,54,25.30
2009,07,26,16,55,25.40
2009,07,26,16,56,25.50
2009,07,26,16,57,25.50
2009,07,26,16,58,25.60
2009,07,26,16,59,25.60
2009,07,26,17,00,25.60
2009,07,26,17,01,25.60
2009,07,26,17,02,25.60
2009,07,26,17,03,25.50
2009,07,26,17,04,25.40
2009,07,26,17,05,25.40
2009,07,26,17,06,25.30
2009,07,26,17,07,25.20
2009,07,26,17,08,25.20
2009,07,26,17,09,25.20
2009,07,26,17,10,25.20
2009,07,26,17,11,25.20
2009,07,26,17,12,25.30
2009,07,26,17,13,25.30
2009,07,26,17,14,25.40
2009,07,26,17,15,25.40
2009,07,26,17,16,25.40
2009,07,26,17,17,25.40
2009,07,26,17,18,25.50
2009,07,26,17,19,25.60